Probability
13 16 18 16 14 13 12 11 11 11 11 13 14 13 10 9 9 10 12 12 9 6 5 7 9 11 15 17 14 12 15 17 16 13 10 8 7 8 10 13 15 15 13
14 15 16 15 13 12 12 11 11 9 9 11 12 11 10 9 9 9 10 10 9 6 6 8 9 11 15 17 15 13 15 17 18 17 14 11 9 8 8 10 13 15 14
14 14 14 13 12 10 11 12 11 9 7 7 8 9 9 8 7 6 6 6 6 5 5 7 9 10 12 13 13 12 13 15 17 16 15 14 11 8 7 7 9 12 13
16 15 14 13 9 8 9 11 11 9 6 4 5 7 8 8 6 4 4 4 3 3 3 4 6 7 7 8 8 9 10 11 13 13 12 12 11 9 7 5 6 8 10
19 18 17 13 7 6 7 8 8 7 4 2 3 5 6 6 5 4 4 3 3 2 1 1 2 3 3 4 5 6 7 8 9 10 10 10 10 9 8 6 6 7 6
21 21 19 13 7 5 5 5 5 4 2 1 1 2 3 3 3 3 3 3 2 2 2 1 1 1 1 2 3 4 5 6 7 8 8 8 8 9 9 8 7 6 5
21 21 18 13 7 5 4 3 3 2 2 1 0 0 0 1 2 2 1 1 1 1 1 1 0 0 0 1 2 3 4 4 5 6 6 6 7 9 9 8 7 5 4
18 18 16 10 6 5 4 3 2 2 1 0 0 0 0 0 1 1 0 0 0 0 0 0 0 0 0 1 1 2 3 3 3 3 3 4 4 5 5 6 6 5 4
14 14 11 7 5 4 3 2 1 1 0 0 0 0 0 0 0 0 0 0 0 0 0 0 0 0 0 0 0 1 2 3 2 1 1 2 1 1 2 3 3 3 2
12 10 8 6 4 3 2 1 0 0 0 0 0 0 0 0 0 0 0 0 0 0 0 0 0 0 0 0 0 0 1 2 2 1 0 0 0 0 1 1 1 1 1
10 8 6 6 4 3 1 0 0 0 0 0 0 0 0 0 0 0 0 0 0 0 0 0 0 0 0 0 0 0 0 1 2 1 0 0 0 0 0 0 0 0 0
7 6 6 6 5 3 1 0 0 0 0 0 0 0 0 0 0 0 0 0 0 0 0 0 0 0 0 0 0 0 0 0 1 1 0 0 0 0 1 0 0 0 0
7 5 5 5 4 3 2 1 0 0 0 0 0 0 0 0 0 0 0 0 0 0 0 0 0 0 0 0 0 0 0 0 0 0 0 0 0 0 0 0 0 0 0
5 4 3 3 2 1 2 1 0 0 0 0 0 0 0 0 0 0 0 0 0 0 0 0 0 0 0 0 0 0 0 0 0 0 0 0 0 0 0 0 0 0 0
3 2 1 1 0 0 1 1 0 0 0 0 0 0 0 0 0 0 0 0 0 0 0 0 0 0 0 0 0 0 0 0 0 0 0 0 0 0 0 0 0 0 0
1 1 0 0 0 0 0 0 0 0 0 0 0 0 0 0 0 0 0 0 0 0 0 0 0 0 0 0 0 0 0 0 0 0 0 0 0 0 0 0 0 0 0
0 0 0 0 0 0 0 0 0 0 0 0 0 0 0 0 0 0 0 0 0 0 0 0 0 0 0 0 0 0 0 0 0 0 0 0 0 0 0 0 0 0 0
0 0 0 0 0 0 0 0 0 0 0 0 0 0 0 0 0 0 0 0 0 0 0 0 0 0 0 0 0 0 0 0 0 0 0 0 0 0 0 0 0 0 0
0 0 0 0 0 0 0 0 0 0 0 0 0 0 0 0 0 0 0 0 0 0 0 0 0 0 0 0 0 0 0 0 0 0 0 0 0 0 0 0 0 0 0
0 0 0 0 0 0 0 0 0 0 0 0 0 0 0 0 0 0 0 0 0 0 0 0 0 0 0 0 0 0 0 0 0 0 0 0 0 0 0 0 0 0 0
1 0 0 0 0 0 0 0 0 0 0 0 0 0 0 0 0 0 0 0 0 0 0 0 0 0 0 0 0 0 0 0 0 0 0 0 0 0 0 0 0 0 0
2 1 0 0 0 0 0 0 0 0 0 0 0 0 0 0 0 0 0 0 0 0 0 0 0 0 0 0 0 0 0 0 0 0 0 0 0 0 0 0 0 0 0
3 2 1 0 0 0 0 0 0 0 0 0 0 0 0 0 0 0 0 0 0 0 0 0 0 0 0 0 0 0 0 0 0 0 0 0 0 0 0 0 0 0 0
3 3 2 1 0 0 0 0 0 0 0 0 0 0 0 0 0 0 0 0 0 0 0 0 0 0 0 0 0 0 0 0 0 0 0 0 0 0 0 0 0 0 0
3 3 3 2 1 0 0 0 0 0 0 0 0 0 0 0 0 0 0 0 0 0 0 0 0 0 0 0 0 0 0 0 0 0 0 0 0 0 0 0 0 0 0
3 3 3 2 1 0 0 0 0 0 0 0 0 0 0 0 0 0 0 0 0 0 0 0 0 0 0 0 0 0 0 0 0 0 0 0 0 0 0 0 0 0 0
Wind_Speed
8 8 7 7 7 7 6 6 6 5 3 2 2 2 3 3 4 4 5 4 4 4 3 3 2 2 2 3 4 3 4 3 3 4 4 3 2 1 1 2 2 3 3
9 8 7 7 7 6 6 6 5 5 4 2 2 2 3 3 4 4 4 5 5 4 2 3 2 3 2 3 3 3 3 2 2 3 4 3 3 2 0 1 1 2 2
10 8 7 7 7 7 6 5 5 5 5 3 2 3 3 3 3 3 4 5 4 4 4 3 3 3 3 2 3 3 3 3 2 3 4 4 3 0 1 1 2 3 3
9 8 8 7 6 6 6 6 6 6 5 4 4 3 3 3 3 2 3 3 4 5 4 4 4 4 3 3 3 2 3 3 3 2 3 4 4 3 1 1 2 3 4
10 9 8 8 7 6 6 6 6 6 6 6 6 4 4 4 3 3 3 3 4 4 4 4 4 3 3 3 4 3 3 2 3 2 2 3 3 4 3 1 1 2 3
11 10 9 8 7 7 6 6 7 7 7 7 7 6 6 5 5 4 3 2 3 3 5 5 4 4 3 3 3 3 2 2 3 3 2 2 2 2 2 2 1 1 1
11 10 9 8 8 7 7 7 8 8 7 7 7 6 6 5 5 4 4 4 3 4 5 5 4 4 4 3 3 3 3 3 2 2 2 2 2 2 2 2 1 1 1
11 10 9 9 8 7 7 7 7 7 7 7 6 5 4 3 4 5 4 4 4 5 5 4 4 4 4 3 3 2 2 2 2 2 2 2 2 1 2 2 2 2 2
11 11 10 9 8 7 7 7 7 7 7 7 6 6 5 5 5 4 4 4 4 4 5 5 4 4 4 4 3 3 3 3 3 3 2 2 2 1 1 1 2 2 2
11 11 10 9 8 7 7 7 7 7 6 6 5 5 6 5 5 5 6 5 5 5 5 5 5 5 4 4 4 4 4 3 3 3 3 3 2 2 1 0 0 0 2
12 11 10 9 9 7 7 7 7 6 6 6 6 6 5 6 6 5 6 5 5 5 5 5 5 5 5 5 5 5 4 4 5 4 4 4 4 2 2 2 2 2 3
11 11 10 9 8 7 7 7 6 6 5 6 6 6 5 6 6 6 6 5 5 5 6 6 6 7 7 6 6 6 6 6 6 6 5 5 4 4 3 3 3 3 4
11 10 9 8 7 7 7 6 6 6 5 5 6 6 6 6 6 6 6 6 6 6 6 6 7 7 7 7 7 7 7 7 7 6 6 6 5 5 4 4 4 5 5
10 10 8 8 7 7 6 6 6 6 5 6 6 6 6 5 5 6 6 6 6 6 6 7 7 7 8 8 7 7 7 8 8 8 8 7 7 6 5 5 6 6 6
10 10 9 8 8 7 6 5 5 5 4 5 6 6 6 5 5 5 5 6 6 7 6 7 7 7 7 8 8 6 7 8 8 9 9 10 10 10 7 5 5 5 5
10 10 9 8 8 7 6 5 5 5 4 5 6 6 6 5 5 5 5 6 7 6 6 7 8 8 8 9 10 8 7 8 9 9 9 9 9 10 10 11 10 7 6
10 10 9 8 8 7 6 6 5 5 5 6 6 6 6 6 5 5 6 6 6 6 7 7 7 8 9 9 9 9 6 8 8 8 8 8 8 7 9 9 10 11 9
9 9 9 9 8 7 7 6 6 5 5 5 6 6 5 5 5 5 5 5 5 6 6 7 7 7 8 9 8 7 6 8 8 9 9 8 9 9 7 9 10 10 9
8 8 8 9 8 8 7 6 6 5 5 5 5 5 5 5 5 5 5 5 5 6 6 6 7 7 7 9 9 8 5 7 8 8 9 8 9 9 7 7 9 9 8
8 9 9 9 8 7 7 7 6 6 6 5 5 5 4 4 5 5 5 4 4 5 5 6 6 6 6 7 9 9 3 5 6 7 8 11 9 8 8 6 7 8 7
10 9 9 9 8 7 7 7 7 6 6 5 5 5 5 4 4 4 4 3 3 4 5 5 5 5 5 6 8 10 5 4 4 5 6 7 8 7 8 6 6 5 2
10 10 9 8 7 7 7 8 7 6 6 6 6 6 4 3 4 4 3 3 3 4 4 4 4 4 5 5 6 7 7 7 4 4 5 6 5 5 5 4 4 2 3
10 9 9 9 7 6 6 8 7 7 6 6 6 5 5 4 4 3 3 3 2 3 3 3 3 3 4 5 4 3 4 5 3 5 5 3 1 1 2 2 2 4 1
9 9 9 9 8 7 7 7 7 7 7 6 6 5 4 4 4 2 2 2 2 3 3 3 2 3 3 3 2 2 2 2 2 2 3 3 2 2 1 2 2 1 3
8 8 8 8 8 8 8 7 7 7 7 6 5 5 4 4 3 3 3 3 4 4 3 2 2 2 3 5 6 5 4 4 4 3 2 2 2 2 2 2 1 1 1
8 8 8 8 8 8 8 7 7 7 7 6 5 4 4 3 3 4 4 4 3 2 1 3 5 3 3 2 3 4 4 4 5 5 1 0 0 1 1 0 1 0 1
Wind_Direction
118 113 106 100 93 86 85 84 76 76 80 95 110 110 96 90 82 73 60 47 39 33 15 1 1 330 325 313 297 283 268 266 279 271 261 240 227 258 309 308 313 319 319
131 118 110 101 94 87 82 84 83 76 70 76 80 88 88 78 71 64 59 45 41 21 19 7 339 343 328 321 316 298 285 278 267 280 279 253 220 165 55 346 356 358 353
141 130 112 97 94 86 77 73 71 71 65 66 90 110 110 106 86 65 57 39 31 25 14 5 351 343 330 333 324 311 289 286 276 280 286 286 281 322 128 62 39 34 22
141 132 119 105 94 87 82 77 73 65 59 58 67 84 88 89 73 58 56 45 32 22 16 8 7 349 344 346 327 342 308 290 281 272 274 287 299 277 224 136 69 43 26
144 134 124 112 99 90 84 77 73 68 64 61 62 62 71 77 79 72 68 47 46 31 20 18 14 360 357 1 348 342 321 304 297 288 288 280 279 263 264 238 128 66 33
141 131 122 112 101 92 88 83 77 70 67 67 67 64 70 70 68 60 55 52 54 43 30 25 18 10 8 6 354 341 342 330 317 307 303 285 274 268 258 241 193 104 52
142 135 128 115 101 91 84 79 77 71 67 71 72 72 74 77 68 56 55 40 40 38 26 19 16 15 10 1 358 0 358 349 342 327 314 300 286 284 265 227 190 151 85
143 138 128 119 110 104 96 88 83 76 71 73 76 73 70 69 67 53 49 48 38 36 22 18 21 16 10 8 1 8 11 7 355 344 326 298 297 291 260 228 185 160 128
144 135 127 120 114 106 96 93 91 85 76 72 74 73 68 64 66 64 52 53 44 40 33 27 27 24 21 17 7 30 25 19 8 5 354 336 345 310 270 244 237 201 156
139 132 127 121 114 109 103 95 90 85 81 78 71 72 70 68 65 58 53 46 44 42 38 37 36 36 35 34 28 44 38 37 32 24 24 13 18 28 33 196 287 249 134
141 137 131 125 119 117 112 102 93 87 80 75 72 68 67 66 63 57 52 45 41 40 41 41 44 44 42 41 43 41 40 42 43 38 43 40 26 33 46 72 90 105 116
141 136 131 129 127 121 109 101 95 89 84 82 78 71 68 66 65 61 53 49 47 46 48 45 47 46 44 40 42 44 43 44 43 40 42 41 48 51 56 73 91 97 105
139 136 135 134 129 122 116 110 106 99 95 90 85 78 72 70 65 62 56 52 53 53 51 48 50 50 47 46 45 47 48 47 44 41 42 45 51 59 71 83 99 103 107
143 142 140 137 130 124 118 114 108 103 97 92 85 80 72 67 65 63 61 56 57 58 56 55 53 52 49 45 46 50 51 50 51 50 50 47 50 59 79 92 100 109 116
149 147 144 142 137 131 125 116 109 106 105 99 90 84 80 73 68 64 63 63 61 60 56 57 56 52 50 36 28 48 58 56 57 56 58 58 56 48 48 71 89 105 114
153 149 146 148 144 139 135 131 121 114 109 96 91 87 83 80 74 70 68 69 66 61 57 56 57 53 47 24 17 18 58 56 58 58 61 72 68 72 70 66 63 64 88
151 151 151 150 145 141 138 135 124 117 109 99 95 91 85 82 79 77 73 73 71 68 64 61 60 60 47 26 23 14 46 59 57 55 55 61 65 66 82 92 94 77 66
150 152 149 145 142 138 135 130 123 118 113 107 101 96 93 91 86 82 76 73 73 69 66 62 65 65 51 26 21 3 59 65 63 58 56 60 62 50 49 80 81 79 69
142 142 143 144 141 135 135 133 131 126 120 110 103 98 96 96 91 84 78 73 76 73 71 66 65 63 55 27 12 353 72 73 70 64 56 55 66 32 18 83 90 88 89
131 137 141 140 136 135 142 141 133 130 121 112 106 101 100 96 92 85 83 82 86 88 84 76 65 60 59 36 15 351 53 73 82 83 79 60 45 25 14 64 81 85 84
132 136 138 137 137 145 148 137 129 124 123 121 113 105 101 102 97 90 90 95 94 91 88 87 84 71 59 60 34 11 17 44 63 74 74 66 41 32 23 31 62 59 37
132 134 136 133 137 145 144 132 124 123 126 119 112 107 105 99 96 94 91 96 107 115 109 104 102 99 87 57 50 34 25 3 47 55 64 72 50 39 33 49 50 331 289
136 138 137 134 134 141 142 131 128 133 131 125 119 114 108 96 93 95 103 117 134 129 120 116 107 97 95 105 103 70 38 13 32 54 53 46 33 194 121 103 288 276 256
141 144 142 138 137 139 137 132 134 138 138 132 128 128 122 114 110 112 101 101 105 106 110 106 103 100 100 75 70 98 130 155 141 110 138 190 232 223 133 179 210 54 35
143 145 144 143 142 141 139 140 141 145 141 137 136 137 128 117 117 99 55 38 57 35 2 35 64 70 73 51 15 347 2 5 21 327 223 175 153 152 129 115 88 85 128
145 148 147 145 143 141 141 144 148 151 149 148 150 151 142 136 145 137 130 75 36 64 22 346 341 35 58 45 355 347 338 327 320 297 263 112 86 61 72 88 128 125 33